Wind_Speed
14 17 17 14 12 13 14 11 9 8 7 5 7 5 3 4 2 4 16 17 16 15 15 16 15 14 13 12 12 12 13 13 12 11 10 11 11 11 11 12 12 12 13 13 13 14 14 15 16
18 18 19 17 14 18 15 10 7 6 7 9 6 4 3 2 5 7 17 19 17 14 14 14 13 12 11 10 10 10 11 11 10 10 9 8 9 9 10 10 10 10 11 12 12 11 12 13 14
12 12 14 14 19 21 16 12 10 8 7 6 5 3 3 6 8 14 16 18 18 15 13 12 12 11 10 9 9 9 9 9 9 8 8 7 7 7 8 8 9 9 9 10 11 11 10 11 12
15 17 16 18 17 14 14 12 10 8 6 6 5 4 6 14 15 17 18 17 17 15 12 11 10 10 9 8 7 7 7 7 7 7 6 7 7 8 8 7 8 8 8 9 9 9 9 9 9
13 14 14 15 14 12 10 9 8 7 5 4 4 4 14 17 19 18 17 17 16 14 12 10 9 9 8 6 5 5 5 4 4 4 4 5 6 6 7 7 6 7 7 7 7 7 7 7 7
10 11 13 15 11 10 8 6 9 7 4 4 6 7 15 19 19 18 18 17 16 14 10 9 8 7 6 4 3 2 2 2 2 2 1 2 3 5 7 6 5 5 7 7 7 7 6 7 6
9 10 11 11 9 7 6 5 7 6 6 6 6 6 14 19 19 18 18 17 15 14 11 8 7 6 4 3 1 1 1 1 1 1 2 1 2 3 5 6 6 5 5 6 7 7 8 7 7
5 9 10 11 11 6 7 5 5 5 4 6 5 2 15 16 19 17 17 16 15 14 11 8 6 5 4 3 1 2 3 3 3 2 3 4 4 4 4 5 6 6 6 6 6 7 8 9 10
7 9 13 13 11 6 7 7 11 6 7 4 4 9 9 15 16 16 15 13 12 12 11 9 6 4 3 2 0 1 2 2 3 3 5 8 9 6 6 6 7 6 6 6 6 6 7 7 9
9 11 9 8 9 9 7 8 9 8 5 1 5 8 13 14 12 12 11 11 10 9 8 8 7 5 4 2 1 1 2 3 5 4 4 1 8 6 6 6 7 7 6 6 6 6 6 7 8
7 6 3 6 9 10 9 10 12 8 5 4 8 17 19 19 16 15 13 11 10 9 7 7 6 5 4 2 1 1 2 5 7 7 3 4 6 4 4 5 5 5 5 6 5 6 7 6 7
6 1 2 5 9 10 9 12 13 15 14 14 14 20 17 16 17 15 13 10 8 6 6 6 7 5 3 2 1 1 0 1 7 6 8 6 6 5 4 4 4 2 3 5 6 8 7 5 6
4 2 1 5 9 8 10 10 14 15 16 17 19 19 14 14 15 15 13 11 8 5 4 8 8 7 4 2 0 1 1 1 6 6 0 2 3 1 2 3 5 4 2 1 3 7 7 5 4
1 1 2 5 7 8 6 7 8 11 13 15 17 18 15 11 10 10 10 9 6 2 2 4 9 6 4 1 1 1 2 0 4 5 4 6 5 2 2 4 5 5 4 3 3 2 3 3 4
2 4 4 4 6 4 4 3 7 7 8 12 14 15 14 15 14 13 11 7 4 1 2 6 9 7 4 0 0 1 2 1 1 4 2 4 3 3 5 5 2 1 3 6 4 2 1 2 2
3 3 3 3 5 6 1 2 5 4 5 6 12 11 12 11 11 9 9 7 3 1 5 6 9 9 6 1 3 3 1 2 2 2 5 5 6 5 8 5 3 1 2 2 3 2 2 1 3
6 3 2 4 8 7 5 2 5 5 5 7 7 9 8 7 7 9 8 8 5 3 4 5 11 11 7 5 4 4 1 2 4 5 5 5 5 4 4 5 3 2 2 2 2 3 4 3 2
5 4 5 7 8 9 8 6 10 5 7 8 7 9 9 8 9 9 8 10 8 6 5 6 8 9 6 5 4 3 1 1 2 4 5 7 6 5 5 5 7 6 5 4 2 5 4 5 6
2 4 9 6 11 7 9 8 9 8 8 10 8 10 10 10 6 10 9 12 12 8 6 7 8 6 6 5 6 5 1 2 0 2 4 6 7 5 8 5 5 6 7 7 7 8 7 8 7
3 8 4 6 7 6 9 7 10 11 9 11 11 7 9 12 9 11 11 11 10 9 4 6 3 1 3 4 3 3 4 4 4 5 6 6 7 8 8 8 7 6 7 8 11 11 11 10 10
6 4 3 3 3 5 6 12 10 15 12 13 13 10 9 9 13 12 13 13 11 10 7 4 3 1 3 3 4 5 5 6 8 10 10 11 11 11 10 10 10 10 11 11 10 11 11 13 13
9 5 4 5 5 2 5 9 5 9 8 11 13 8 6 6 9 11 16 14 12 10 8 7 7 5 3 4 3 4 3 5 7 8 9 10 12 13 14 14 14 14 14 13 12 13 14 13 13
6 6 3 6 5 4 7 9 1 10 6 9 14 9 4 5 7 12 17 16 16 14 12 3 2 6 7 8 7 10 10 10 11 11 9 8 10 13 15 16 18 19 19 17 17 15 15 16 15
9 2 5 4 5 13 1 9 12 1 6 12 11 8 3 4 5 14 18 15 13 13 9 6 5 8 10 10 12 16 14 9 8 8 9 10 10 12 15 17 18 20 19 17 18 18 18 16 17
10 11 13 9 8 6 3 8 11 11 7 9 10 4 5 7 8 11 16 16 14 14 11 9 11 11 13 16 15 9 8 9 12 9 8 11 11 11 15 18 18 19 19 19 19 21 20 20 20
14 16 16 5 8 4 2 8 4 12 9 9 10 6 2 5 13 12 10 12 14 11 9 11 10 8 11 13 17 16 13 13 14 18 17 17 18 20 20 21 22 24 25 25 23 23 23 23 22
13 15 13 15 10 13 6 9 9 9 7 6 10 6 7 11 13 15 15 15 11 9 7 6 9 12 12 13 16 18 18 20 20 20 19 21 24 27 30 30 29 30 31 33 27 27 27 26 25
13 9 11 13 5 7 4 6 6 6 9 6 11 13 13 14 14 12 12 10 8 7 7 9 11 12 13 14 16 18 22 22 22 21 22 23 25 25 27 28 28 27 31 35 34 29 26 27 28
12 15 16 8 7 11 8 4 6 3 8 9 14 16 15 11 12 13 12 9 7 5 3 3 6 8 9 10 13 15 16 17 18 19 20 21 22 23 24 26 28 28 29 31 33 35 34 33 31
11 10 15 16 11 8 13 14 7 7 5 14 17 17 16 13 12 12 11 10 8 4 3 7 11 12 11 11 12 14 15 16 16 18 20 20 21 22 23 23 24 25 29 30 31 32 33 33 34
Wind_Direction
74 81 75 76 64 70 69 64 67 58 63 76 133 95 143 99 126 133 156 145 136 132 128 124 122 114 105 96 91 87 84 84 83 82 84 91 95 95 94 94 89 88 96 103 105 106 106 102 99
87 84 73 63 69 67 62 64 57 79 83 100 99 87 100 162 149 140 155 143 134 132 128 126 122 113 103 98 89 80 78 80 82 82 84 97 99 103 103 103 105 102 101 101 106 112 112 110 107
76 79 77 69 65 62 70 69 77 91 88 94 52 90 150 153 155 147 152 141 133 134 130 127 123 114 106 98 88 74 72 73 71 79 86 95 114 114 120 120 121 121 116 114 115 117 113 111 107
100 80 66 72 70 68 65 71 81 78 77 86 77 25 128 130 138 146 147 141 135 134 132 128 124 117 107 96 89 81 70 66 69 71 79 97 110 134 132 141 136 131 133 129 131 127 123 118 114
89 71 76 70 70 66 68 73 67 55 83 71 67 100 132 130 130 141 143 141 136 134 134 130 124 116 105 99 90 83 75 60 59 65 73 85 102 124 138 141 152 149 149 146 144 143 138 131 126
68 73 69 65 68 61 59 73 44 46 67 51 60 130 143 132 135 141 144 141 138 133 135 134 128 119 113 101 83 59 49 52 41 50 74 96 115 123 138 141 149 157 166 173 172 170 166 162 154
79 70 59 63 65 59 55 67 37 44 57 116 96 137 156 144 144 147 146 143 140 139 139 139 137 132 127 123 109 46 338 360 315 308 310 211 180 162 143 154 155 167 173 178 190 196 194 194 186
72 73 59 60 57 54 63 48 47 59 85 160 86 45 163 157 151 151 146 146 145 145 146 147 153 155 164 154 59 360 351 356 321 323 277 267 235 198 185 178 172 176 180 186 196 207 210 212 210
85 80 68 57 52 67 73 42 40 51 108 141 122 127 170 165 154 150 146 145 143 145 147 151 158 175 176 154 93 350 351 325 320 292 293 264 233 216 207 200 187 190 190 195 205 213 219 218 222
98 78 63 67 63 70 82 53 39 69 81 81 165 132 138 149 141 132 133 134 137 142 153 158 166 180 180 163 147 341 331 302 308 294 299 9 184 210 214 217 202 200 201 201 202 208 217 221 225
103 86 32 77 89 81 86 59 53 55 39 135 159 134 125 120 125 130 132 134 138 141 158 171 178 182 177 165 121 31 6 30 353 353 212 167 170 168 186 206 217 232 230 232 234 228 211 221 227
96 91 35 101 106 92 84 70 57 63 73 109 128 139 120 111 114 112 121 144 147 150 164 185 185 186 180 186 135 91 295 360 20 59 112 145 132 140 151 174 171 197 235 241 242 228 221 213 221
96 6 79 124 124 112 88 83 58 56 78 101 122 137 135 120 119 117 109 111 115 129 177 203 200 192 193 210 93 154 124 14 12 25 136 180 152 147 143 164 180 156 151 198 247 218 207 222 236
135 46 127 129 142 134 103 70 65 63 83 99 117 134 141 129 124 121 123 110 107 139 194 190 200 197 189 218 291 180 170 269 344 358 28 158 125 97 85 159 129 123 110 79 72 170 214 240 245
130 98 119 152 159 169 146 66 125 81 92 105 128 142 151 142 146 143 134 128 117 105 222 204 201 185 183 242 154 154 180 269 45 357 24 168 115 48 24 95 154 135 135 80 87 50 189 186 206
145 168 176 263 217 255 162 58 212 128 123 128 149 149 153 156 157 154 156 154 173 225 230 209 198 193 195 172 129 126 109 324 311 340 311 344 346 343 349 57 90 69 36 5 36 70 35 360 309
206 172 250 259 252 253 227 331 280 212 162 170 185 179 174 188 175 167 177 171 162 99 117 164 172 178 183 167 143 128 135 305 303 288 262 259 280 298 323 329 326 335 11 10 310 8 347 337 355
146 223 263 272 268 245 260 258 290 266 201 198 197 208 197 221 212 213 200 198 179 144 127 138 173 179 176 160 137 128 169 306 279 279 277 272 270 283 291 301 294 290 309 310 296 306 315 328 308
203 264 282 263 269 249 253 251 261 270 225 216 224 227 221 231 249 207 195 203 198 164 159 157 160 174 176 180 172 167 171 135 136 330 292 270 268 275 297 277 285 280 277 272 270 274 275 274 282
282 274 253 268 273 255 271 264 251 269 257 223 242 255 237 235 239 210 197 191 191 185 164 143 135 180 203 198 206 207 193 208 223 251 266 277 272 257 261 267 273 272 273 262 262 264 266 270 274
250 289 257 277 281 272 266 260 267 272 263 257 258 261 279 249 221 206 191 182 186 180 158 133 169 206 240 242 241 250 258 266 270 276 282 280 277 269 266 273 280 286 284 284 292 284 278 275 281
269 301 270 209 178 276 304 319 235 230 258 256 257 247 250 250 214 202 195 191 189 188 170 188 207 225 202 207 230 229 257 265 275 278 288 295 291 285 282 281 280 278 278 276 274 278 291 288 282
272 293 225 194 223 267 211 276 172 309 217 219 243 232 214 245 198 200 184 166 174 175 168 155 270 218 258 245 247 268 246 244 267 273 278 288 293 287 278 279 282 281 284 285 281 277 283 285 287
245 264 173 183 247 252 147 290 306 306 209 268 231 228 234 243 201 183 185 181 183 189 214 224 244 259 252 263 251 311 261 247 253 261 273 275 275 284 286 278 274 278 279 281 278 277 273 279 277
232 202 209 221 212 275 356 284 289 289 220 270 205 210 324 235 205 166 184 202 211 217 227 241 246 257 256 260 273 298 266 269 277 259 270 294 284 284 279 280 281 282 279 275 276 277 280 279 277
224 232 269 246 271 351 299 280 351 289 304 257 219 248 222 168 167 169 181 190 186 202 243 247 256 257 276 272 262 267 271 277 284 278 291 292 294 292 294 288 284 278 275 276 274 273 274 274 276
213 232 256 278 262 274 279 300 270 295 283 278 208 201 156 153 153 147 148 148 156 180 203 231 241 258 264 268 261 261 268 281 283 283 286 287 287 289 291 288 283 275 272 272 275 267 264 265 267
227 248 231 218 263 260 180 280 326 299 192 280 198 187 172 159 152 156 167 176 179 189 219 243 258 267 267 264 261 262 273 278 278 280 284 283 282 283 283 281 277 273 272 273 275 276 268 270 262
233 241 237 273 273 310 273 45 13 312 204 222 193 192 194 191 185 180 179 183 170 159 225 292 302 296 290 282 276 272 276 280 283 285 285 285 285 284 279 277 276 274 271 271 271 272 273 272 273
232 233 214 229 211 242 309 304 349 321 243 192 188 203 199 193 186 179 178 170 162 158 295 327 319 303 291 288 282 280 281 280 280 280 282 282 283 285 284 282 279 276 272 268 266 267 270 270 268
Height
3183 3182 3182 3181 3186 3183 3183 3186 3185 3185 3185 3183 3183 3185 3186 3185 3186 3190 3187 3188 3190 3192 3193 3195 3197 3198 3199 3200 3201 3201 3200 3201 3201 3201 3202 3201 3201 3201 3201 3201 3201 3202 3203 3204 3204 3204 3204 3205 3206
3185 3185 3184 3183 3186 3184 3187 3187 3186 3186 3184 3183 3183 3184 3185 3185 3185 3185 3188 3189 3192 3194 3196 3197 3198 3200 3201 3202 3202 3202 3203 3203 3203 3202 3203 3204 3204 3203 3204 3204 3204 3204 3205 3206 3206 3207 3207 3208 3209
3188 3187 3188 3188 3188 3187 3189 3188 3186 3185 3184 3185 3184 3184 3184 3184 3185 3187 3190 3191 3193 3195 3197 3199 3200 3201 3202 3203 3203 3204 3204 3205 3205 3204 3204 3205 3205 3206 3206 3206 3206 3207 3207 3208 3209 3209 3210 3210 3211
3190 3191 3191 3192 3191 3192 3191 3190 3188 3187 3186 3186 3185 3184 3184 3184 3186 3189 3191 3193 3195 3197 3199 3200 3202 3203 3204 3205 3205 3205 3206 3206 3206 3206 3206 3206 3206 3206 3207 3207 3208 3209 3209 3210 3211 3212 3212 3213 3214
3192 3193 3194 3193 3194 3194 3193 3191 3191 3190 3188 3188 3187 3186 3186 3186 3187 3190 3193 3195 3197 3199 3201 3202 3203 3204 3205 3206 3207 3207 3207 3207 3208 3208 3207 3207 3207 3208 3207 3208 3208 3210 3210 3211 3212 3213 3213 3214 3216
3196 3195 3195 3194 3196 3196 3194 3193 3193 3192 3190 3189 3188 3188 3188 3188 3190 3192 3194 3197 3199 3200 3202 3203 3204 3205 3206 3207 3207 3208 3208 3208 3208 3208 3208 3209 3208 3208 3208 3208 3209 3210 3211 3212 3213 3213 3215 3215 3216
3198 3197 3197 3197 3197 3197 3196 3194 3195 3194 3192 3191 3190 3190 3191 3190 3192 3194 3196 3198 3200 3202 3203 3205 3206 3207 3207 3208 3209 3209 3209 3209 3209 3209 3209 3209 3209 3209 3209 3209 3210 3211 3211 3212 3213 3214 3214 3216 3217
3198 3199 3198 3198 3197 3198 3197 3196 3194 3195 3193 3191 3191 3193 3192 3192 3193 3195 3198 3200 3201 3203 3205 3206 3208 3208 3208 3208 3209 3209 3209 3210 3209 3209 3209 3209 3209 3209 3209 3209 3210 3211 3211 3212 3213 3214 3214 3215 3217
3199 3200 3199 3199 3199 3199 3197 3197 3193 3192 3193 3192 3192 3195 3193 3194 3196 3198 3200 3202 3204 3205 3206 3208 3208 3209 3209 3209 3209 3210 3210 3209 3209 3208 3208 3208 3208 3208 3209 3210 3209 3210 3211 3212 3213 3214 3214 3215 3216
3201 3200 3201 3201 3201 3201 3200 3199 3195 3195 3194 3192 3193 3193 3194 3197 3199 3201 3203 3204 3205 3207 3207 3208 3209 3209 3209 3209 3209 3209 3210 3208 3207 3207 3206 3206 3206 3207 3207 3208 3209 3209 3210 3211 3212 3213 3214 3214 3215
3202 3203 3202 3202 3203 3202 3201 3200 3197 3197 3197 3194 3194 3196 3198 3199 3201 3203 3204 3206 3207 3208 3208 3209 3209 3209 3209 3209 3210 3210 3210 3209 3207 3206 3206 3207 3208 3208 3208 3208 3208 3209 3209 3210 3211 3212 3212 3213 3214
3204 3203 3203 3203 3203 3204 3203 3202 3200 3197 3195 3194 3195 3199 3201 3202 3203 3205 3206 3207 3208 3209 3209 3209 3209 3210 3210 3209 3210 3210 3210 3210 3208 3207 3207 3208 3208 3208 3208 3209 3208 3208 3208 3209 3209 3210 3211 3212 3213
3205 3203 3203 3204 3204 3205 3203 3203 3202 3200 3198 3197 3198 3200 3203 3204 3205 3206 3207 3208 3208 3209 3208 3208 3209 3210 3210 3210 3210 3210 3210 3210 3210 3210 3209 3209 3210 3209 3209 3208 3209 3208 3209 3209 3209 3210 3211 3212 3213
3204 3204 3204 3204 3205 3205 3205 3204 3204 3203 3202 3201 3201 3202 3204 3205 3207 3208 3208 3208 3208 3209 3208 3208 3208 3209 3210 3210 3210 3210 3210 3211 3210 3210 3210 3209 3210 3209 3209 3210 3209 3209 3209 3209 3209 3210 3210 3211 3212
3205 3205 3205 3205 3205 3206 3206 3207 3207 3204 3203 3202 3202 3203 3204 3205 3206 3207 3208 3208 3208 3208 3207 3207 3208 3209 3210 3210 3210 3210 3210 3211 3211 3210 3209 3208 3209 3209 3209 3210 3211 3211 3209 3209 3210 3210 3211 3211 3212
3207 3207 3206 3205 3205 3205 3207 3208 3205 3205 3205 3205 3205 3205 3205 3206 3207 3207 3208 3208 3208 3207 3206 3206 3207 3208 3209 3209 3210 3210 3211 3211 3212 3212 3208 3207 3209 3210 3209 3210 3211 3212 3211 3210 3211 3211 3211 3212 3212
3205 3202 3206 3206 3204 3205 3207 3208 3205 3205 3205 3207 3207 3207 3208 3208 3208 3208 3208 3207 3207 3205 3204 3205 3206 3207 3208 3209 3209 3210 3211 3211 3212 3212 3212 3212 3212 3211 3210 3210 3210 3211 3211 3210 3212 3212 3212 3211 3211
3203 3204 3205 3205 3205 3204 3206 3208 3204 3204 3205 3206 3206 3206 3207 3207 3207 3207 3207 3207 3206 3205 3204 3205 3206 3207 3208 3208 3209 3209 3211 3211 3211 3211 3211 3210 3211 3211 3211 3210 3210 3209 3209 3210 3211 3211 3211 3210 3211
3204 3205 3204 3204 3202 3203 3204 3206 3203 3203 3203 3203 3204 3204 3205 3205 3204 3204 3204 3205 3206 3205 3205 3205 3206 3208 3208 3208 3208 3208 3210 3210 3210 3210 3210 3210 3210 3210 3209 3209 3209 3209 3209 3209 3209 3209 3210 3210 3210
3204 3203 3202 3201 3200 3202 3202 3203 3201 3200 3200 3201 3200 3201 3202 3202 3203 3203 3203 3203 3205 3205 3206 3205 3207 3208 3209 3209 3209 3209 3210 3209 3209 3209 3209 3209 3209 3208 3208 3208 3208 3208 3207 3207 3207 3208 3208 3208 3208
3201 3201 3201 3202 3200 3200 3200 3199 3197 3196 3197 3197 3197 3198 3198 3199 3201 3201 3201 3202 3203 3205 3206 3206 3206 3208 3209 3209 3209 3209 3209 3210 3210 3209 3208 3208 3208 3207 3206 3206 3206 3206 3206 3206 3206 3207 3207 3207 3206
3199 3200 3199 3200 3201 3196 3199 3194 3194 3195 3194 3194 3193 3195 3195 3196 3199 3200 3200 3200 3202 3205 3206 3206 3206 3207 3207 3208 3208 3209 3208 3208 3208 3207 3207 3206 3206 3206 3206 3205 3205 3205 3205 3204 3204 3204 3204 3204 3204
3200 3199 3200 3199 3200 3199 3196 3197 3192 3191 3193 3191 3191 3192 3194 3194 3195 3198 3199 3200 3201 3204 3205 3206 3206 3206 3207 3207 3207 3207 3206 3205 3206 3205 3205 3204 3203 3203 3203 3203 3203 3203 3202 3202 3202 3203 3202 3201 3202
3198 3199 3199 3199 3198 3193 3192 3196 3189 3190 3192 3187 3189 3191 3192 3193 3193 3195 3198 3199 3201 3204 3204 3205 3206 3206 3206 3205 3205 3205 3204 3204 3204 3203 3202 3201 3200 3200 3199 3199 3198 3198 3198 3198 3198 3199 3198 3198 3198
3197 3198 3191 3191 3189 3186 3191 3193 3190 3187 3187 3186 3188 3190 3190 3190 3192 3193 3197 3199 3201 3202 3203 3204 3205 3204 3203 3202 3203 3204 3203 3203 3202 3201 3200 3199 3198 3197 3196 3195 3195 3195 3194 3194 3194 3193 3194 3194 3193
3194 3193 3187 3186 3183 3182 3189 3188 3186 3184 3184 3185 3187 3188 3189 3189 3190 3191 3193 3196 3198 3200 3201 3202 3202 3202 3200 3199 3200 3201 3202 3201 3201 3200 3198 3197 3196 3195 3194 3193 3191 3190 3189 3189 3189 3189 3190 3188 3188
3191 3192 3190 3187 3187 3187 3183 3187 3185 3181 3182 3183 3185 3187 3188 3189 3190 3191 3193 3195 3197 3198 3199 3200 3199 3199 3198 3198 3197 3197 3197 3197 3197 3195 3194 3193 3192 3189 3189 3187 3187 3185 3184 3183 3183 3183 3183 3182 3182
3187 3188 3188 3186 3184 3183 3178 3184 3183 3182 3181 3181 3183 3185 3187 3188 3190 3191 3193 3194 3196 3196 3197 3197 3196 3195 3195 3194 3194 3193 3193 3192 3191 3189 3187 3186 3186 3184 3182 3181 3180 3179 3177 3175 3175 3175 3177 3177 3177
3184 3184 3186 3184 3185 3179 3175 3175 3180 3181 3181 3179 3181 3184 3186 3187 3189 3190 3191 3193 3194 3195 3195 3195 3194 3193 3191 3190 3189 3189 3188 3187 3186 3185 3183 3181 3179 3178 3177 3176 3174 3172 3171 3169 3168 3168 3169 3169 3170
3180 3180 3181 3181 3179 3181 3181 3180 3178 3180 3180 3180 3180 3181 3184 3186 3187 3190 3191 3192 3193 3193 3194 3193 3191 3190 3189 3188 3187 3185 3184 3183 3182 3181 3180 3178 3175 3173 3171 3170 3168 3166 3165 3164 3162 3162 3161 3161 3161